TimeCDT,TemperatureF,Dew PointF,Humidity,Sea Level PressureIn,VisibilityMPH,Wind Direction,Wind SpeedMPH,Gust SpeedMPH,PrecipitationIn,Events,Conditions,WindDirDegrees,DateUTC
12:15 AM,81.5,78.8,91,30.06,10.0,Calm,Calm,-,N/A,,Clear,0,2013-08-05 05:15:00
12:35 AM,79.9,77.7,93,30.06,10.0,Calm,Calm,-,N/A,,Clear,0,2013-08-05 05:35:00
12:55 AM,79.7,78.1,95,30.04,10.0,Calm,Calm,-,N/A,,Clear,0,2013-08-05 05:55:00
1:15 AM,78.8,77.7,96,30.04,10.0,Calm,Calm,-,N/A,,Clear,0,2013-08-05 06:15:00
1:35 AM,78.6,77.5,96,30.04,10.0,Calm,Calm,-,N/A,,Clear,0,2013-08-05 06:35:00
1:55 AM,78.3,77.2,96,30.03,10.0,Calm,Calm,-,N/A,,Clear,0,2013-08-05 06:55:00
2:15 AM,77.9,76.8,96,30.02,4.0,Calm,Calm,-,N/A,,Clear,0,2013-08-05 07:15:00
2:35 AM,77.2,76.5,98,30.02,10.0,Calm,Calm,-,N/A,,Clear,0,2013-08-05 07:35:00
2:55 AM,77.4,77.0,99,30.02,5.0,Calm,Calm,-,N/A,,Clear,0,2013-08-05 07:55:00
3:15 AM,76.5,76.1,99,30.02,10.0,Calm,Calm,-,N/A,,Clear,0,2013-08-05 08:15:00
3:35 AM,76.1,76.1,100,30.02,10.0,Calm,Calm,-,N/A,,Clear,0,2013-08-05 08:35:00
3:55 AM,75.7,75.4,99,30.01,10.0,Calm,Calm,-,N/A,,Clear,0,2013-08-05 08:55:00
4:15 AM,76.6,76.3,99,30.01,10.0,Calm,Calm,-,N/A,,Clear,0,2013-08-05 09:15:00
4:35 AM,75.6,75.2,99,30.02,10.0,Calm,Calm,-,N/A,,Clear,0,2013-08-05 09:35:00
4:55 AM,76.1,75.9,99,30.02,10.0,Calm,Calm,-,N/A,,Clear,0,2013-08-05 09:55:00
5:15 AM,77.0,76.5,98,30.02,10.0,WNW,3.5,-,N/A,,Clear,300,2013-08-05 10:15:00
5:35 AM,76.1,75.7,99,30.03,10.0,Calm,Calm,-,N/A,,Clear,0,2013-08-05 10:35:00
5:55 AM,76.3,76.3,100,30.04,10.0,Calm,Calm,-,N/A,,Clear,0,2013-08-05 10:55:00
6:15 AM,74.7,74.7,100,30.04,10.0,Calm,Calm,-,N/A,,Scattered Clouds,0,2013-08-05 11:15:00
6:35 AM,75.4,75.4,100,30.05,10.0,NNW,4.6,-,N/A,,Scattered Clouds,340,2013-08-05 11:35:00
6:55 AM,76.5,76.5,100,30.05,10.0,WNW,4.6,-,N/A,,Mostly Cloudy,300,2013-08-05 11:55:00
7:15 AM,77.4,77.4,100,30.05,10.0,WNW,3.5,-,N/A,,Scattered Clouds,290,2013-08-05 12:15:00
7:35 AM,78.4,78.4,100,30.06,10.0,WNW,3.5,-,N/A,,Clear,300,2013-08-05 12:35:00
7:55 AM,80.1,79.3,98,30.07,10.0,NNW,3.5,-,N/A,,Scattered Clouds,330,2013-08-05 12:55:00
8:15 AM,82.2,80.6,95,30.07,10.0,NW,3.5,-,N/A,,Scattered Clouds,310,2013-08-05 13:15:00
8:35 AM,84.0,81.1,91,30.07,10.0,WNW,6.9,-,N/A,,Clear,300,2013-08-05 13:35:00
8:55 AM,85.8,79.7,82,30.07,10.0,WNW,9.2,-,N/A,,Clear,300,2013-08-05 13:55:00
9:15 AM,86.7,79.0,78,30.07,10.0,NW,8.1,-,N/A,,Clear,310,2013-08-05 14:15:00
9:35 AM,87.6,79.3,76,30.07,10.0,NW,6.9,-,N/A,,Clear,310,2013-08-05 14:35:00
9:55 AM,88.9,79.0,72,30.07,10.0,NW,8.1,-,N/A,,Scattered Clouds,310,2013-08-05 14:55:00
10:15 AM,89.8,78.6,70,30.07,10.0,NW,6.9,-,N/A,,Scattered Clouds,320,2013-08-05 15:15:00
10:35 AM,90.9,78.4,67,30.07,10.0,WNW,4.6,-,N/A,,Scattered Clouds,290,2013-08-05 15:35:00
10:55 AM,90.5,77.7,66,30.07,10.0,WNW,8.1,-,N/A,,Scattered Clouds,300,2013-08-05 15:55:00
11:15 AM,89.8,77.5,67,30.07,10.0,WNW,6.9,-,N/A,,Mostly Cloudy,290,2013-08-05 16:15:00
11:35 AM,89.1,77.0,67,30.06,10.0,WNW,3.5,-,N/A,,Mostly Cloudy,290,2013-08-05 16:35:00
11:55 AM,92.3,76.8,60,30.05,10.0,West,5.8,-,N/A,,Scattered Clouds,260,2013-08-05 16:55:00
12:15 PM,92.3,77.4,62,30.05,10.0,NW,6.9,-,N/A,,Scattered Clouds,310,2013-08-05 17:15:00
12:35 PM,93.9,77.2,58,30.05,10.0,WSW,4.6,-,N/A,,Scattered Clouds,240,2013-08-05 17:35:00
12:55 PM,93.0,76.5,58,30.04,10.0,West,4.6,-,N/A,,Scattered Clouds,260,2013-08-05 17:55:00
1:15 PM,93.7,77.9,60,30.03,10.0,SSW,11.5,16.1,N/A,,Scattered Clouds,210,2013-08-05 18:15:00
1:35 PM,93.4,79.3,64,30.03,10.0,South,8.1,-,N/A,,Scattered Clouds,190,2013-08-05 18:35:00
1:55 PM,93.4,78.4,62,30.02,10.0,SW,9.2,17.3,N/A,,Scattered Clouds,220,2013-08-05 18:55:00
2:15 PM,93.7,79.0,62,30.02,10.0,WSW,10.4,-,N/A,,Scattered Clouds,240,2013-08-05 19:15:00
2:35 PM,92.7,77.4,61,30.01,10.0,SW,6.9,-,N/A,,Clear,230,2013-08-05 19:35:00
2:55 PM,88.5,76.3,67,30.01,10.0,WSW,4.6,-,N/A,,Clear,240,2013-08-05 19:55:00
3:15 PM,92.5,77.0,60,30.00,10.0,SW,6.9,16.1,N/A,,Clear,220,2013-08-05 20:15:00
3:35 PM,93.4,77.2,59,29.99,10.0,SW,8.1,-,N/A,,Clear,220,2013-08-05 20:35:00
3:55 PM,93.4,76.5,58,29.99,10.0,SW,6.9,-,N/A,,Clear,230,2013-08-05 20:55:00
4:15 PM,94.1,76.3,56,29.98,10.0,SSW,9.2,-,N/A,,Clear,210,2013-08-05 21:15:00
4:35 PM,93.7,75.4,55,29.99,10.0,SW,5.8,-,N/A,Thunderstorm,Clear,230,2013-08-05 21:35:00
4:55 PM,86.5,76.3,71,29.99,10.0,WSW,11.5,20.7,N/A,,Clear,250,2013-08-05 21:55:00
5:15 PM,85.5,73.9,68,29.99,10.0,WSW,4.6,-,N/A,,Clear,250,2013-08-05 22:15:00
5:35 PM,85.8,74.8,70,29.99,10.0,WSW,4.6,-,N/A,,Clear,250,2013-08-05 22:35:00
5:55 PM,89.4,77.2,67,29.99,10.0,WSW,8.1,16.1,N/A,,Clear,240,2013-08-05 22:55:00
6:15 PM,90.3,76.8,64,29.98,10.0,SW,6.9,-,N/A,,Clear,230,2013-08-05 23:15:00
6:35 PM,90.0,78.1,68,29.99,10.0,SW,4.6,-,N/A,,Clear,230,2013-08-05 23:35:00
6:55 PM,90.0,78.1,68,29.99,10.0,SW,3.5,-,N/A,,Clear,230,2013-08-05 23:55:00
7:15 PM,89.2,77.4,68,29.98,10.0,SW,4.6,-,N/A,,Clear,230,2013-08-06 00:15:00
7:35 PM,87.8,77.4,71,29.99,10.0,WSW,5.8,-,N/A,,Clear,240,2013-08-06 00:35:00
7:55 PM,87.3,78.6,75,29.99,10.0,WSW,5.8,-,N/A,,Scattered Clouds,240,2013-08-06 00:55:00
8:15 PM,86.2,77.9,76,29.99,10.0,North,-9999.0,-,N/A,,Scattered Clouds,0,2013-08-06 01:15:00
8:35 PM,84.7,77.9,80,29.99,10.0,WSW,3.5,-,N/A,,Clear,250,2013-08-06 01:35:00
8:55 PM,84.6,77.4,79,29.99,10.0,WSW,3.5,-,N/A,,Clear,250,2013-08-06 01:55:00
9:15 PM,83.8,77.5,81,29.99,10.0,Calm,Calm,-,N/A,,Clear,0,2013-08-06 02:15:00
9:35 PM,83.5,78.1,84,30.00,10.0,Calm,Calm,-,N/A,,Clear,0,2013-08-06 02:35:00
9:55 PM,82.9,77.9,85,30.00,10.0,WSW,4.6,-,N/A,,Clear,250,2013-08-06 02:55:00
10:15 PM,82.6,77.9,86,30.01,10.0,Calm,Calm,-,N/A,,Clear,0,2013-08-06 03:15:00
10:35 PM,83.3,78.1,84,30.01,10.0,Calm,Calm,-,N/A,,Clear,0,2013-08-06 03:35:00
10:55 PM,83.3,78.1,84,30.01,10.0,SW,3.5,-,N/A,,Clear,220,2013-08-06 03:55:00
11:15 PM,82.9,77.9,85,30.01,10.0,Calm,Calm,-,N/A,,Clear,0,2013-08-06 04:15:00
11:35 PM,82.4,77.9,86,30.00,10.0,Calm,Calm,-,N/A,,Clear,0,2013-08-06 04:35:00
11:55 PM,82.0,77.9,87,29.99,10.0,Calm,Calm,-,N/A,,Clear,0,2013-08-06 04:55:00